CES5395 ZSSS-ZHCC

Flight info

Callsign CES5395
Flight time 1h 26m
Altitude 36100
Route PIK71D PIKAS G330 UNTAN G345 OLRIS R343 HFE B208 FYG W596 UNTEL UNT9V
Aircraft A321/M-SDE3FGHIRWY/LB1

Departure

Time 2026-05-07 07:07
Airport Shanghai Hongqiao International Airport (ZSSS)

Arrival

Time 2026-05-07 08:33
Airport Zhengzhou Xinzheng International Airport (ZHCC)
Time Latitude Longitude Altitude Speed Heading
2026-05-07 06:16 31.20723 121.32740 19 ft 0 kts 267°
2026-05-07 06:52 31.20723 121.32743 19 ft 2 kts 267°
2026-05-07 06:52 31.20724 121.32773 19 ft 4 kts 267°
2026-05-07 06:52 31.20725 121.32804 19 ft 2 kts 267°
2026-05-07 06:53 31.20729 121.32830 19 ft 4 kts 228°
2026-05-07 06:53 31.20750 121.32840 20 ft 4 kts 179°
2026-05-07 06:53 31.20762 121.32840 20 ft 1 kts 177°
2026-05-07 06:53 31.20763 121.32840 19 ft 0 kts 177°
2026-05-07 06:58 31.20749 121.32841 19 ft 5 kts 177°
2026-05-07 06:58 31.20710 121.32843 19 ft 6 kts 177°
2026-05-07 06:58 31.20663 121.32845 19 ft 7 kts 177°
2026-05-07 06:59 31.20608 121.32848 19 ft 9 kts 177°
2026-05-07 06:59 31.20543 121.32851 19 ft 10 kts 177°
2026-05-07 06:59 31.20470 121.32855 19 ft 11 kts 177°
2026-05-07 06:59 31.20407 121.32869 19 ft 9 kts 149°
2026-05-07 07:00 31.20376 121.32928 19 ft 9 kts 135°
2026-05-07 07:00 31.20313 121.32945 19 ft 10 kts 177°
2026-05-07 07:00 31.20239 121.32949 19 ft 11 kts 177°
2026-05-07 07:00 31.20157 121.32953 19 ft 12 kts 177°
2026-05-07 07:01 31.20066 121.32958 19 ft 14 kts 178°
2026-05-07 07:01 31.19968 121.32963 19 ft 15 kts 177°
2026-05-07 07:01 31.19861 121.32969 19 ft 16 kts 177°
2026-05-07 07:01 31.19746 121.32976 19 ft 17 kts 177°
2026-05-07 07:02 31.19624 121.32982 19 ft 18 kts 178°
2026-05-07 07:02 31.19495 121.32989 19 ft 19 kts 177°
2026-05-07 07:02 31.19359 121.32996 19 ft 20 kts 177°
2026-05-07 07:02 31.19217 121.33004 19 ft 21 kts 177°
2026-05-07 07:03 31.19071 121.33012 19 ft 21 kts 177°
2026-05-07 07:03 31.18919 121.33020 20 ft 22 kts 177°
2026-05-07 07:03 31.18763 121.33029 19 ft 23 kts 177°
2026-05-07 07:03 31.18603 121.33037 19 ft 23 kts 178°
2026-05-07 07:04 31.18457 121.33045 19 ft 15 kts 177°
2026-05-07 07:04 31.18381 121.33049 19 ft 5 kts 177°
2026-05-07 07:04 31.18344 121.33067 20 ft 6 kts 131°
2026-05-07 07:04 31.18339 121.33119 19 ft 7 kts 89°
2026-05-07 07:05 31.18340 121.33183 19 ft 9 kts 88°
2026-05-07 07:05 31.18343 121.33259 19 ft 10 kts 86°
2026-05-07 07:05 31.18385 121.33319 19 ft 10 kts 17°
2026-05-07 07:05 31.18452 121.33321 21 ft 5 kts 358°
2026-05-07 07:06 31.18455 121.33321 21 ft 0 kts 357°
2026-05-07 07:06 31.18499 121.33318 21 ft 30 kts 357°
2026-05-07 07:06 31.18967 121.33292 21 ft 102 kts 357°
2026-05-07 07:06 31.19885 121.33242 20 ft 159 kts 357°
2026-05-07 07:07 31.21088 121.33203 388 ft 175 kts 356°
2026-05-07 07:07 31.22301 121.33128 1110 ft 175 kts 349°
2026-05-07 07:07 31.23392 121.32518 1822 ft 177 kts 324°
2026-05-07 07:07 31.24407 121.31604 2181 ft 194 kts 320°
2026-05-07 07:08 31.25509 121.30548 2409 ft 216 kts 320°
2026-05-07 07:08 31.26751 121.29380 2596 ft 242 kts 321°
2026-05-07 07:08 31.28109 121.28142 3066 ft 253 kts 322°
2026-05-07 07:08 31.29530 121.26885 3579 ft 259 kts 322°
2026-05-07 07:09 31.30980 121.25630 4090 ft 260 kts 322°
2026-05-07 07:09 31.32449 121.24375 4611 ft 263 kts 323°
2026-05-07 07:09 31.33936 121.23113 5127 ft 264 kts 324°
2026-05-07 07:09 31.35422 121.21857 5637 ft 265 kts 323°
2026-05-07 07:10 31.36921 121.20592 6165 ft 266 kts 323°
2026-05-07 07:10 31.38436 121.19318 6663 ft 270 kts 323°
2026-05-07 07:10 31.39960 121.18017 7177 ft 271 kts 319°
2026-05-07 07:10 31.41277 121.16452 7692 ft 270 kts 311°
2026-05-07 07:11 31.42534 121.14846 8206 ft 272 kts 311°
2026-05-07 07:11 31.43813 121.13204 8738 ft 274 kts 310°
2026-05-07 07:11 31.45227 121.11694 9264 ft 278 kts 323°
2026-05-07 07:11 31.46947 121.10625 9811 ft 283 kts 332°
2026-05-07 07:12 31.48757 121.09671 10305 ft 290 kts 332°
2026-05-07 07:12 31.50621 121.08681 10819 ft 299 kts 332°
2026-05-07 07:12 31.52563 121.07649 11157 ft 316 kts 332°
2026-05-07 07:12 31.54632 121.06547 11288 ft 338 kts 332°
2026-05-07 07:13 31.56834 121.05369 11511 ft 355 kts 332°
2026-05-07 07:13 31.59106 121.04158 12064 ft 361 kts 332°
2026-05-07 07:13 31.61406 121.02938 12704 ft 365 kts 331°
2026-05-07 07:13 31.63736 121.01702 13344 ft 369 kts 331°
2026-05-07 07:14 31.66087 121.00457 13938 ft 373 kts 331°
2026-05-07 07:14 31.68462 120.99195 14522 ft 376 kts 331°
2026-05-07 07:14 31.70850 120.97923 15123 ft 378 kts 331°
2026-05-07 07:14 31.73255 120.96640 15708 ft 381 kts 331°
2026-05-07 07:15 31.75671 120.95350 16313 ft 383 kts 331°
2026-05-07 07:15 31.78104 120.94052 16916 ft 385 kts 331°
2026-05-07 07:15 31.80549 120.92746 17497 ft 387 kts 330°
2026-05-07 07:15 31.83008 120.91433 18055 ft 390 kts 330°
2026-05-07 07:16 31.85486 120.90109 18543 ft 392 kts 330°
2026-05-07 07:16 31.87979 120.88773 18999 ft 395 kts 330°
2026-05-07 07:16 31.90488 120.87425 19450 ft 398 kts 330°
2026-05-07 07:16 31.93019 120.86068 19884 ft 401 kts 330°
2026-05-07 07:17 31.95564 120.84703 20315 ft 404 kts 330°
2026-05-07 07:17 31.98136 120.83323 20691 ft 409 kts 330°
2026-05-07 07:17 32.00732 120.81927 21079 ft 412 kts 330°
2026-05-07 07:17 32.03312 120.80539 21481 ft 415 kts 330°
2026-05-07 07:18 32.05944 120.79119 21877 ft 417 kts 330°
2026-05-07 07:18 32.08591 120.77690 22262 ft 420 kts 330°
2026-05-07 07:18 32.11205 120.76151 22629 ft 418 kts 323°
2026-05-07 07:18 32.13480 120.74067 22998 ft 413 kts 311°
2026-05-07 07:19 32.15302 120.71478 23361 ft 409 kts 299°
2026-05-07 07:19 32.16599 120.68508 23688 ft 406 kts 288°
2026-05-07 07:19 32.17327 120.65296 23994 ft 405 kts 277°
2026-05-07 07:19 32.17624 120.61988 24319 ft 406 kts 274°
2026-05-07 07:20 32.17898 120.58664 24663 ft 408 kts 274°
2026-05-07 07:20 32.18175 120.55322 25003 ft 410 kts 274°
2026-05-07 07:20 32.18455 120.51971 25325 ft 411 kts 274°
2026-05-07 07:20 32.18736 120.48606 25659 ft 413 kts 274°
2026-05-07 07:21 32.19017 120.45230 25980 ft 414 kts 274°
2026-05-07 07:21 32.19296 120.41832 26300 ft 416 kts 274°
2026-05-07 07:21 32.19575 120.38424 26625 ft 417 kts 274°
2026-05-07 07:21 32.19852 120.35010 26954 ft 419 kts 274°
2026-05-07 07:22 32.19992 120.31621 27262 ft 419 kts 267°
2026-05-07 07:22 32.19619 120.28160 27511 ft 421 kts 258°
2026-05-07 07:22 32.18719 120.24871 27553 ft 422 kts 248°
2026-05-07 07:22 32.17368 120.21789 27556 ft 424 kts 244°
2026-05-07 07:23 32.15972 120.18776 27542 ft 423 kts 244°
2026-05-07 07:23 32.14562 120.15727 27550 ft 423 kts 244°
2026-05-07 07:23 32.13158 120.12678 27547 ft 423 kts 243°
2026-05-07 07:23 32.11758 120.09621 27553 ft 423 kts 244°
2026-05-07 07:24 32.10367 120.06573 27541 ft 422 kts 244°
2026-05-07 07:24 32.08977 120.03529 27548 ft 422 kts 244°
2026-05-07 07:24 32.07583 120.00488 27548 ft 422 kts 244°
2026-05-07 07:24 32.06188 119.97446 27548 ft 422 kts 244°
2026-05-07 07:25 32.03392 119.91374 27548 ft 421 kts 244°
2026-05-07 07:25 32.02004 119.88332 27548 ft 421 kts 244°
2026-05-07 07:25 32.00624 119.85286 27548 ft 421 kts 244°
2026-05-07 07:26 31.99252 119.82241 27561 ft 421 kts 244°
2026-05-07 07:26 31.97877 119.79185 27543 ft 423 kts 244°
2026-05-07 07:26 31.96494 119.76117 27545 ft 424 kts 244°
2026-05-07 07:26 31.95108 119.73054 27545 ft 424 kts 244°
2026-05-07 07:27 31.94189 119.71028 27553 ft 424 kts 244°
2026-05-07 07:27 31.92818 119.67955 27548 ft 424 kts 244°
2026-05-07 07:27 31.91481 119.64863 27547 ft 424 kts 245°
2026-05-07 07:27 31.89722 119.60718 27547 ft 424 kts 245°
2026-05-07 07:28 31.88852 119.58657 27553 ft 424 kts 245°
2026-05-07 07:28 31.87541 119.55556 27553 ft 424 kts 245°
2026-05-07 07:28 31.86222 119.52456 27548 ft 423 kts 245°
2026-05-07 07:28 31.84469 119.48361 27545 ft 423 kts 245°
2026-05-07 07:29 31.83575 119.46276 27537 ft 424 kts 245°
2026-05-07 07:29 31.82242 119.43178 27554 ft 425 kts 245°
2026-05-07 07:29 31.80904 119.40076 27547 ft 426 kts 245°
2026-05-07 07:29 31.79557 119.36972 27548 ft 426 kts 245°
2026-05-07 07:30 31.78201 119.33883 27562 ft 426 kts 244°
2026-05-07 07:30 31.76838 119.30796 27561 ft 426 kts 244°
2026-05-07 07:30 31.75473 119.27706 27561 ft 426 kts 244°
2026-05-07 07:30 31.74111 119.24622 27567 ft 426 kts 244°
2026-05-07 07:31 31.72749 119.21543 27564 ft 425 kts 244°
2026-05-07 07:31 31.71389 119.18464 27560 ft 424 kts 244°
2026-05-07 07:31 31.70030 119.15382 27561 ft 424 kts 245°
2026-05-07 07:31 31.68674 119.12310 27550 ft 424 kts 245°
2026-05-07 07:32 31.67314 119.09225 27567 ft 426 kts 245°
2026-05-07 07:32 31.66186 119.06019 27569 ft 424 kts 254°
2026-05-07 07:32 31.65552 119.02654 27574 ft 423 kts 263°
2026-05-07 07:32 31.65418 118.99211 27574 ft 423 kts 272°
2026-05-07 07:33 31.65590 118.95808 27574 ft 423 kts 273°
2026-05-07 07:33 31.65824 118.92368 27574 ft 422 kts 274°
2026-05-07 07:33 31.66097 118.88940 27575 ft 422 kts 275°
2026-05-07 07:33 31.66385 118.85514 27574 ft 422 kts 275°
2026-05-07 07:34 31.66670 118.82088 27575 ft 421 kts 274°
2026-05-07 07:34 31.66944 118.78668 27574 ft 421 kts 274°
2026-05-07 07:34 31.67203 118.75245 27574 ft 421 kts 274°
2026-05-07 07:34 31.67452 118.71817 27574 ft 421 kts 274°
2026-05-07 07:35 31.67697 118.68387 27574 ft 421 kts 274°
2026-05-07 07:35 31.67944 118.64964 27576 ft 421 kts 274°
2026-05-07 07:35 31.68195 118.61541 27574 ft 421 kts 274°
2026-05-07 07:35 31.68445 118.58117 27574 ft 421 kts 274°
2026-05-07 07:36 31.68692 118.54696 27575 ft 421 kts 274°
2026-05-07 07:36 31.68939 118.51276 27575 ft 421 kts 274°
2026-05-07 07:36 31.69183 118.47854 27575 ft 421 kts 274°
2026-05-07 07:36 31.69426 118.44427 27575 ft 421 kts 274°
2026-05-07 07:37 31.69668 118.41008 27578 ft 421 kts 274°
2026-05-07 07:37 31.69906 118.37630 27578 ft 421 kts 274°
2026-05-07 07:37 31.70148 118.34210 27578 ft 420 kts 274°
2026-05-07 07:37 31.70389 118.30796 27580 ft 420 kts 274°
2026-05-07 07:38 31.70629 118.27384 27584 ft 419 kts 274°
2026-05-07 07:38 31.70865 118.23970 27580 ft 419 kts 274°
2026-05-07 07:38 31.71102 118.20558 27580 ft 419 kts 274°
2026-05-07 07:38 31.71342 118.17151 27581 ft 414 kts 274°
2026-05-07 07:39 31.71572 118.13860 27578 ft 395 kts 274°
2026-05-07 07:39 31.71792 118.10703 27580 ft 385 kts 274°
2026-05-07 07:39 31.72015 118.07522 27583 ft 397 kts 274°
2026-05-07 07:39 31.72254 118.04251 27591 ft 407 kts 274°
2026-05-07 07:40 31.72503 118.00898 27590 ft 416 kts 274°
2026-05-07 07:40 31.72754 117.97502 27589 ft 419 kts 274°
2026-05-07 07:40 31.73006 117.94092 27573 ft 418 kts 274°
2026-05-07 07:40 31.73256 117.90690 27590 ft 418 kts 274°
2026-05-07 07:41 31.73505 117.87287 27588 ft 418 kts 274°
2026-05-07 07:41 31.73752 117.83886 27588 ft 418 kts 274°
2026-05-07 07:41 31.73995 117.80489 27594 ft 418 kts 274°
2026-05-07 07:41 31.74237 117.77094 27594 ft 417 kts 274°
2026-05-07 07:42 31.74479 117.73694 27599 ft 417 kts 274°
2026-05-07 07:42 31.74720 117.70294 27602 ft 417 kts 274°
2026-05-07 07:42 31.74965 117.66899 27603 ft 417 kts 274°
2026-05-07 07:42 31.75210 117.63500 27596 ft 417 kts 274°
2026-05-07 07:43 31.75447 117.60148 27597 ft 417 kts 274°
2026-05-07 07:43 31.75690 117.56707 27603 ft 417 kts 274°
2026-05-07 07:43 31.75923 117.53354 27603 ft 417 kts 274°
2026-05-07 07:43 31.76158 117.49959 27601 ft 417 kts 274°
2026-05-07 07:44 31.76389 117.46557 27611 ft 417 kts 274°
2026-05-07 07:44 31.76619 117.43163 27604 ft 416 kts 274°
2026-05-07 07:44 31.76848 117.39775 27605 ft 416 kts 274°
2026-05-07 07:44 31.77079 117.36382 27606 ft 416 kts 274°
2026-05-07 07:45 31.77534 117.33023 27612 ft 417 kts 283°
2026-05-07 07:45 31.78508 117.29804 27613 ft 420 kts 292°
2026-05-07 07:45 31.79985 117.26832 27614 ft 424 kts 302°
2026-05-07 07:45 31.81869 117.24141 27613 ft 427 kts 307°
2026-05-07 07:46 31.83801 117.21487 27615 ft 427 kts 306°
2026-05-07 07:46 31.85726 117.18829 27615 ft 427 kts 306°
2026-05-07 07:46 31.87648 117.16165 27646 ft 427 kts 306°
2026-05-07 07:46 31.89568 117.13499 27647 ft 427 kts 306°
2026-05-07 07:47 31.91486 117.10834 27651 ft 427 kts 306°
2026-05-07 07:47 31.93405 117.08163 27674 ft 427 kts 306°
2026-05-07 07:47 31.95320 117.05496 27654 ft 426 kts 306°
2026-05-07 07:47 31.97236 117.02829 27657 ft 426 kts 306°
2026-05-07 07:48 31.99153 117.00166 27657 ft 426 kts 306°
2026-05-07 07:48 32.01073 116.97509 27657 ft 426 kts 307°
2026-05-07 07:48 32.02994 116.94851 27657 ft 426 kts 307°
2026-05-07 07:48 32.04919 116.92190 27657 ft 426 kts 307°
2026-05-07 07:49 32.06841 116.89531 27656 ft 426 kts 306°
2026-05-07 07:49 32.08761 116.86871 27660 ft 426 kts 306°
2026-05-07 07:49 32.10679 116.84208 27650 ft 425 kts 306°
2026-05-07 07:49 32.12592 116.81548 27648 ft 425 kts 306°
2026-05-07 07:50 32.14502 116.78889 27646 ft 425 kts 306°
2026-05-07 07:50 32.16412 116.76226 27645 ft 425 kts 306°
2026-05-07 07:50 32.18318 116.73567 27645 ft 425 kts 306°
2026-05-07 07:50 32.20222 116.70896 27643 ft 425 kts 306°
2026-05-07 07:51 32.22103 116.68210 27642 ft 424 kts 305°
2026-05-07 07:51 32.23969 116.65514 27640 ft 424 kts 305°
2026-05-07 07:51 32.25834 116.62811 27640 ft 424 kts 305°
2026-05-07 07:51 32.27693 116.60110 27645 ft 424 kts 305°
2026-05-07 07:52 32.29531 116.57444 27661 ft 424 kts 305°
2026-05-07 07:52 32.31397 116.54741 27647 ft 425 kts 305°
2026-05-07 07:52 32.33269 116.52034 27645 ft 425 kts 305°
2026-05-07 07:52 32.35144 116.49330 27648 ft 425 kts 305°
2026-05-07 07:53 32.37021 116.46626 27651 ft 425 kts 305°
2026-05-07 07:53 32.38894 116.43922 27653 ft 425 kts 305°
2026-05-07 07:53 32.40765 116.41216 27652 ft 425 kts 305°
2026-05-07 07:53 32.42638 116.38504 27652 ft 425 kts 305°
2026-05-07 07:54 32.44505 116.35796 27654 ft 425 kts 305°
2026-05-07 07:54 32.46372 116.33084 27655 ft 425 kts 305°
2026-05-07 07:54 32.48240 116.30372 27654 ft 425 kts 305°
2026-05-07 07:54 32.50107 116.27660 27653 ft 425 kts 305°
2026-05-07 07:55 32.51970 116.24946 27655 ft 425 kts 305°
2026-05-07 07:55 32.53835 116.22224 27654 ft 425 kts 305°
2026-05-07 07:55 32.55694 116.19509 27653 ft 425 kts 305°
2026-05-07 07:55 32.57549 116.16810 27264 ft 420 kts 305°
2026-05-07 07:56 32.59411 116.14160 26621 ft 416 kts 306°
2026-05-07 07:56 32.61271 116.11553 26026 ft 412 kts 306°
2026-05-07 07:56 32.63126 116.08974 25724 ft 411 kts 306°
2026-05-07 07:56 32.64976 116.06396 25628 ft 410 kts 306°
2026-05-07 07:57 32.66826 116.03810 25658 ft 411 kts 306°
2026-05-07 07:57 32.68670 116.01217 25657 ft 411 kts 306°
2026-05-07 07:57 32.70509 115.98623 25656 ft 411 kts 305°
2026-05-07 07:57 32.72342 115.96028 25659 ft 411 kts 305°
2026-05-07 07:58 32.74177 115.93427 25662 ft 411 kts 305°
2026-05-07 07:58 32.75990 115.90855 25659 ft 412 kts 305°
2026-05-07 07:58 32.77829 115.88247 25665 ft 412 kts 305°
2026-05-07 07:58 32.79670 115.85637 25665 ft 412 kts 305°
2026-05-07 07:59 32.81514 115.83026 25665 ft 412 kts 305°
2026-05-07 07:59 32.83355 115.80420 25665 ft 412 kts 305°
2026-05-07 07:59 32.85196 115.77808 25664 ft 412 kts 305°
2026-05-07 07:59 32.87048 115.75211 25671 ft 413 kts 308°
2026-05-07 08:00 32.89182 115.72883 25673 ft 420 kts 317°
2026-05-07 08:00 32.91641 115.70971 25678 ft 425 kts 323°
2026-05-07 08:00 32.94185 115.69170 25677 ft 425 kts 323°
2026-05-07 08:00 32.96724 115.67362 25676 ft 425 kts 323°
2026-05-07 08:01 32.99258 115.65549 25691 ft 425 kts 323°
2026-05-07 08:01 33.01796 115.63727 25692 ft 426 kts 323°
2026-05-07 08:01 33.04334 115.61906 25681 ft 426 kts 323°
2026-05-07 08:01 33.06879 115.60084 25682 ft 426 kts 323°
2026-05-07 08:02 33.09419 115.58264 25682 ft 427 kts 323°
2026-05-07 08:02 33.11913 115.56368 25679 ft 423 kts 317°
2026-05-07 08:02 33.14116 115.54083 25682 ft 416 kts 309°
2026-05-07 08:02 33.16028 115.51510 25690 ft 414 kts 306°
2026-05-07 08:03 33.17917 115.48915 25691 ft 415 kts 306°
2026-05-07 08:03 33.19813 115.46320 25689 ft 415 kts 306°
2026-05-07 08:03 33.21709 115.43728 25693 ft 415 kts 306°
2026-05-07 08:03 33.23606 115.41131 25694 ft 415 kts 306°
2026-05-07 08:04 33.25477 115.38566 25694 ft 415 kts 306°
2026-05-07 08:04 33.27392 115.35937 25696 ft 414 kts 306°
2026-05-07 08:04 33.29260 115.33372 25699 ft 414 kts 306°
2026-05-07 08:04 33.31175 115.30741 25693 ft 412 kts 306°
2026-05-07 08:05 33.33022 115.28199 25697 ft 411 kts 306°
2026-05-07 08:05 33.34894 115.25617 25697 ft 410 kts 306°
2026-05-07 08:05 33.36763 115.23036 25701 ft 410 kts 306°
2026-05-07 08:05 33.38628 115.20457 25707 ft 410 kts 306°
2026-05-07 08:06 33.40496 115.17875 25706 ft 410 kts 306°
2026-05-07 08:06 33.42363 115.15296 25706 ft 410 kts 306°
2026-05-07 08:06 33.44231 115.12712 25708 ft 410 kts 306°
2026-05-07 08:06 33.46101 115.10128 25705 ft 410 kts 306°
2026-05-07 08:07 33.47970 115.07547 25707 ft 410 kts 306°
2026-05-07 08:07 33.49842 115.04962 25703 ft 410 kts 306°
2026-05-07 08:07 33.51710 115.02377 25707 ft 410 kts 306°
2026-05-07 08:07 33.53574 114.99789 25714 ft 411 kts 306°
2026-05-07 08:08 33.55442 114.97189 25709 ft 411 kts 306°
2026-05-07 08:08 33.57307 114.94591 25710 ft 411 kts 306°
2026-05-07 08:08 33.59175 114.91989 25712 ft 411 kts 306°
2026-05-07 08:08 33.61043 114.89390 25711 ft 411 kts 306°
2026-05-07 08:09 33.62907 114.86791 25712 ft 411 kts 306°
2026-05-07 08:09 33.64776 114.84184 25727 ft 411 kts 306°
2026-05-07 08:09 33.66640 114.81589 25717 ft 410 kts 306°
2026-05-07 08:09 33.68552 114.79098 25714 ft 413 kts 312°
2026-05-07 08:10 33.70860 114.76919 25714 ft 421 kts 321°
2026-05-07 08:10 33.73423 114.75273 25720 ft 429 kts 330°
2026-05-07 08:10 33.76264 114.74090 25722 ft 434 kts 335°
2026-05-07 08:10 33.79143 114.72991 25434 ft 432 kts 335°
2026-05-07 08:11 33.81969 114.71916 25222 ft 418 kts 335°
2026-05-07 08:11 33.84694 114.70882 25109 ft 403 kts 335°
2026-05-07 08:11 33.87321 114.69878 24985 ft 389 kts 335°
2026-05-07 08:11 33.89852 114.68903 24868 ft 372 kts 334°
2026-05-07 08:12 33.92243 114.67982 24508 ft 352 kts 334°
2026-05-07 08:12 33.94539 114.67090 23862 ft 343 kts 334°
2026-05-07 08:12 33.96777 114.66192 23017 ft 334 kts 331°
2026-05-07 08:12 33.98847 114.65029 22168 ft 323 kts 324°
2026-05-07 08:13 34.00700 114.63573 21326 ft 314 kts 317°
2026-05-07 08:13 34.02333 114.61883 20498 ft 306 kts 311°
2026-05-07 08:13 34.03747 114.59999 19690 ft 301 kts 306°
2026-05-07 08:13 34.04937 114.57947 18899 ft 297 kts 300°
2026-05-07 08:14 34.05884 114.55752 18072 ft 294 kts 293°
2026-05-07 08:14 34.06670 114.53484 17181 ft 292 kts 293°
2026-05-07 08:14 34.07452 114.51232 16345 ft 290 kts 294°
2026-05-07 08:14 34.08231 114.48996 15525 ft 288 kts 294°
2026-05-07 08:15 34.09006 114.46771 14729 ft 287 kts 294°
2026-05-07 08:15 34.09773 114.44560 13964 ft 285 kts 294°
2026-05-07 08:15 34.10537 114.42355 13119 ft 284 kts 295°
2026-05-07 08:15 34.11295 114.40172 12323 ft 281 kts 295°
2026-05-07 08:16 34.12036 114.38035 11580 ft 278 kts 296°
2026-05-07 08:16 34.12781 114.35890 10824 ft 276 kts 296°
2026-05-07 08:16 34.13520 114.33759 10099 ft 274 kts 296°
2026-05-07 08:16 34.14254 114.31643 9332 ft 272 kts 296°
2026-05-07 08:17 34.14980 114.29555 8599 ft 268 kts 297°
2026-05-07 08:17 34.15697 114.27490 7863 ft 265 kts 297°
2026-05-07 08:17 34.16406 114.25450 7158 ft 262 kts 297°
2026-05-07 08:17 34.17106 114.23434 6466 ft 259 kts 297°
2026-05-07 08:18 34.17788 114.21455 6047 ft 250 kts 296°
2026-05-07 08:18 34.18442 114.19551 5906 ft 242 kts 297°
2026-05-07 08:18 34.19080 114.17693 5650 ft 239 kts 297°
2026-05-07 08:18 34.19718 114.15839 5309 ft 238 kts 296°
2026-05-07 08:19 34.20352 114.14001 4852 ft 238 kts 296°
2026-05-07 08:19 34.20992 114.12142 4338 ft 241 kts 296°
2026-05-07 08:19 34.21635 114.10278 3947 ft 241 kts 296°
2026-05-07 08:19 34.22272 114.08429 3895 ft 231 kts 296°
2026-05-07 08:20 34.23046 114.06828 3895 ft 215 kts 315°
2026-05-07 08:20 34.24193 114.05729 3902 ft 210 kts 336°
2026-05-07 08:20 34.25094 114.05315 3907 ft 209 kts 349°
2026-05-07 08:20 34.26528 114.05219 3907 ft 206 kts
2026-05-07 08:21 34.28331 114.05926 3910 ft 207 kts 22°
2026-05-07 08:21 34.29573 114.06766 3914 ft 204 kts 39°
2026-05-07 08:21 34.30491 114.08063 3916 ft 205 kts 57°
2026-05-07 08:21 34.30981 114.09693 3918 ft 209 kts 76°
2026-05-07 08:22 34.30961 114.11470 3916 ft 215 kts 99°
2026-05-07 08:22 34.30645 114.12637 3913 ft 218 kts 109°
2026-05-07 08:22 34.29844 114.14877 3912 ft 220 kts 108°
2026-05-07 08:22 34.29437 114.16022 3918 ft 219 kts 109°
2026-05-07 08:23 34.28936 114.17725 3880 ft 217 kts 94°
2026-05-07 08:23 34.29028 114.19479 3614 ft 206 kts 69°
2026-05-07 08:23 34.29651 114.21025 3285 ft 204 kts 59°
2026-05-07 08:23 34.30309 114.22533 3061 ft 202 kts 59°
2026-05-07 08:24 34.30960 114.24038 3015 ft 203 kts 60°
2026-05-07 08:24 34.31618 114.25563 3016 ft 206 kts 60°
2026-05-07 08:24 34.32284 114.27086 3012 ft 205 kts 56°
2026-05-07 08:24 34.33262 114.28290 3010 ft 200 kts 30°
2026-05-07 08:25 34.34584 114.28781 3015 ft 202 kts
2026-05-07 08:25 34.35965 114.28451 3011 ft 207 kts 337°
2026-05-07 08:25 34.37071 114.27318 3010 ft 213 kts 306°
2026-05-07 08:25 34.37719 114.25685 3015 ft 216 kts 296°
2026-05-07 08:26 34.38868 114.22290 3017 ft 218 kts 296°
2026-05-07 08:26 34.39450 114.20596 3015 ft 215 kts 296°
2026-05-07 08:26 34.40001 114.18988 2998 ft 199 kts 297°
2026-05-07 08:27 34.40529 114.17457 3014 ft 196 kts 296°
2026-05-07 08:27 34.41049 114.15948 3046 ft 192 kts 297°
2026-05-07 08:27 34.41560 114.14461 3016 ft 192 kts 299°
2026-05-07 08:27 34.42075 114.12965 3013 ft 192 kts 296°
2026-05-07 08:28 34.42583 114.11485 3016 ft 192 kts 296°
2026-05-07 08:28 34.43097 114.09988 3013 ft 192 kts 296°
2026-05-07 08:28 34.43609 114.08495 3012 ft 191 kts 297°
2026-05-07 08:28 34.44121 114.07001 3018 ft 192 kts 298°
2026-05-07 08:29 34.44634 114.05503 3046 ft 192 kts 297°
2026-05-07 08:29 34.45148 114.04002 3030 ft 194 kts 297°
2026-05-07 08:29 34.45668 114.02486 3014 ft 194 kts 297°
2026-05-07 08:29 34.46184 114.00978 2996 ft 194 kts 297°
2026-05-07 08:30 34.46704 113.99458 2841 ft 195 kts 296°
2026-05-07 08:30 34.47222 113.97943 2611 ft 193 kts 296°
2026-05-07 08:30 34.47698 113.96539 2364 ft 168 kts 298°
2026-05-07 08:30 34.48132 113.95271 2153 ft 159 kts 298°
2026-05-07 08:31 34.48551 113.94046 1959 ft 154 kts 298°
2026-05-07 08:31 34.48958 113.92854 1752 ft 152 kts 297°
2026-05-07 08:31 34.49368 113.91657 1546 ft 154 kts 296°
2026-05-07 08:31 34.49772 113.90472 1356 ft 150 kts 297°
2026-05-07 08:32 34.50161 113.89309 1159 ft 150 kts 297°
2026-05-07 08:32 34.50557 113.88135 955 ft 153 kts 297°
2026-05-07 08:32 34.50984 113.86966 722 ft 151 kts 296°
2026-05-07 08:32 34.51377 113.85806 557 ft 148 kts 294°
2026-05-07 08:33 34.51738 113.84685 502 ft 129 kts 295°
2026-05-07 08:33 34.52031 113.83848 498 ft 83 kts 292°
2026-05-07 08:33 34.52188 113.83391 503 ft 34 kts 293°
2026-05-07 08:33 34.52252 113.83204 504 ft 23 kts 292°
2026-05-07 08:34 34.52302 113.83048 505 ft 13 kts 302°
2026-05-07 08:34 34.52382 113.83028 505 ft 13 kts 21°
2026-05-07 08:34 34.52469 113.83071 505 ft 14 kts 22°
2026-05-07 08:34 34.52525 113.83135 505 ft 11 kts 88°
2026-05-07 08:35 34.52498 113.83233 505 ft 13 kts 112°
2026-05-07 08:35 34.52461 113.83341 505 ft 13 kts 112°
2026-05-07 08:35 34.52436 113.83414 505 ft 8 kts 112°
2026-05-07 08:35 34.52411 113.83487 505 ft 10 kts 112°
2026-05-07 08:36 34.52381 113.83575 505 ft 12 kts 112°
2026-05-07 08:36 34.52346 113.83678 505 ft 14 kts 112°
2026-05-07 08:36 34.52306 113.83795 505 ft 16 kts 112°
2026-05-07 08:36 34.52262 113.83925 505 ft 18 kts 112°
2026-05-07 08:37 34.52216 113.84062 505 ft 13 kts 112°
2026-05-07 08:37 34.52180 113.84167 505 ft 14 kts 112°
2026-05-07 08:37 34.52139 113.84285 505 ft 16 kts 112°
2026-05-07 08:37 34.52096 113.84411 505 ft 14 kts 112°
2026-05-07 08:38 34.52057 113.84527 505 ft 16 kts 112°
2026-05-07 08:38 34.52013 113.84656 505 ft 17 kts 112°
2026-05-07 08:38 34.51965 113.84797 505 ft 17 kts 112°
2026-05-07 08:38 34.51929 113.84906 505 ft 13 kts 112°
2026-05-07 08:39 34.51962 113.84991 505 ft 13 kts 27°
2026-05-07 08:39 34.52053 113.85037 505 ft 15 kts 22°
2026-05-07 08:39 34.52151 113.85086 505 ft 11 kts 22°
2026-05-07 08:39 34.52206 113.85113 505 ft 7 kts 22°
2026-05-07 08:40 34.52244 113.85089 505 ft 6 kts 302°
2026-05-07 08:40 34.52256 113.85055 505 ft 3 kts 292°
2026-05-07 08:40 34.52261 113.85040 505 ft 0 kts 292°